This demonstration page uses our WeatherBlox Daily Observations layout. Learn more.

Left ArrowRight Arrow

Hourly Observations for December 1, 2021

Temp ( °F °C ) Dew Point ( °F °C ) Humidity (%) Winds ( mph kmh ) Pressure ( in mb ) Visibility ( mi km ) Precip ( " mm )
12:59 am 00:59 Clear 49 9.4 27 -2.8 43 43 WSW 8 13 30.09 1019 10 16 0.00 0.00
1:59 am 01:59 Clear 46 7.8 27 -2.8 47 47 SW 5 7 30.10 1019 10 16 0.00 0.00
2:59 am 02:59 Clear 44 6.7 27 -2.8 51 51 WSW 6 9 30.11 1020 10 16 0.00 0.00
3:59 am 03:59 Clear 43 6.1 28 -2.2 56 56 WSW 5 7 30.13 1020 10 16 0.00 0.00
4:59 am 04:59 Clear 40 4.4 28 -2.2 63 63 Calm 30.15 1021 10 16 0.00 0.00
5:59 am 05:59 Clear 36 2.2 30 -1.1 79 79 Calm 30.16 1022 10 16 0.00 0.00
6:59 am 06:59 Clear 34 1.1 28 -2.2 79 79 S 3 6 30.19 1023 10 16 0.00 0.00
7:59 am 07:59 Sunny 38 3.3 32 0 79 79 S 3 6 30.23 1024 10 16 0.00 0.00
8:59 am 08:59 Sunny 47 8.3 33 0.6 59 59 Calm 30.24 1024 10 16 0.00 0.00
9:59 am 09:59 Sunny 52 11.1 33 0.6 49 49 Calm 30.25 1024 10 16 0.00 0.00
10:59 am 10:59 Sunny 55 12.8 34 1.1 45 45 NNW 3 6 30.24 1024 10 16 0.00 0.00
11:59 am 11:59 Mostly Sunny 56 13.3 31 -0.6 39 39 ENE 7 11 30.22 1023 10 16 0.00 0.00
12:59 pm 12:59 Partly Cloudy 57 13.9 35 1.7 44 44 ENE 9 15 30.20 1023 10 16 0.00 0.00
1:59 pm 13:59 Mostly Cloudy 57 13.9 37 2.8 47 47 E 10 17 30.18 1022 10 16 0.00 0.00
2:59 pm 14:59 Mostly Cloudy 56 13.3 40 4.4 55 55 ENE 8 13 30.16 1021 10 16 0.00 0.00
3:59 pm 15:59 Mostly Cloudy 55 12.8 41 5 59 59 ESE 7 11 30.14 1021 10 16 0.00 0.00
4:59 pm 16:59 Clear 53 11.7 38 3.3 57 57 ESE 6 9 30.14 1021 10 16 0.00 0.00
5:59 pm 17:59 Mostly Cloudy 50 10 38 3.3 63 63 SSE 5 7 30.16 1021 10 16 0.00 0.00
6:59 pm 18:59 Mostly Cloudy 50 10 40 4.4 68 68 SSE 7 11 30.15 1021 10 16 0.00 0.00
7:59 pm 19:59 Mostly Cloudy 51 10.6 41 5 69 69 SSE 7 11 30.15 1021 10 16 0.00 0.00
8:59 pm 20:59 Mostly Cloudy 51 10.6 41 5 69 69 SSE 7 11 30.13 1020 10 16 0.00 0.00
9:59 pm 21:59 Cloudy 51 10.6 41 5 69 69 S 7 11 30.11 1020 10 16 0.00 0.00
10:59 pm 22:59 Cloudy 54 12.2 38 3.3 55 55 S 9 15 30.09 1019 10 16 0.00 0.00
11:59 pm 23:59 Cloudy 53 11.7 38 3.3 57 57 SSW 8 13 30.08 1019 10 16 0.00 0.00

Powered by AerisWeather